Wichita, KS

1:52 AM CDT on October 17, 2017 (GMT -0500)
Wichita Eisenhower National Airport

Weather History for KICT - January, 2013

Change the Weather History Date:

Wednesday, January 23, 2013

  Actual Average Record
Temperature  
Mean Temperature 39 °F 32 °F  
Max Temperature 58 °F 43 °F 73 °F (1967)
Min Temperature 19 °F 22 °F -6 °F (1894)
Degree Days  
Heating Degree Days 26 32  
Month to date heating degree days 694 758  
Since 1 July heating degree days 2258 2601  
Cooling Degree Days 0 0  
Month to date cooling degree days 0 0  
Year to date cooling degree days 0 0  
Moisture  
Dew Point 23 °F    
Average Humidity 63    
Maximum Humidity 91    
Minimum Humidity 35    
Precipitation  
Precipitation 0.00 in 0.03 in 0.43 in (1949)
Month to date precipitation 0.53 0.57  
Year to date precipitation 0.53 0.57  
Snow  
Snow 0.00 in 0.10 in 3.70 in (1979)
Month to date snowfall 0.7 2.5  
Since 1 July snowfall 3.2 8.1  
Snow Depth 0.00 in    
Sea Level Pressure  
Sea Level Pressure 30.24 in    
Wind  
Wind Speed 5 mph (NNE)    
Max Wind Speed 23 mph    
Max Gust Speed 29 mph    
Visibility 10 miles    
Events      
T = Trace of Precipitation, MM = Missing Value Source: NWS Daily Summary

Daily Weather History Graph

Daily Weather History Graph

Search for Another Location

Airport or City:

Trip Planner

Search our weather history database for the weather conditions in past years. The results will help you decide how hot, cold, wet, or windy it might be!

Date:

Astronomy

Jan. 23, 2013 Rise Set
Actual Time 7:39 AM CST 5:43 PM CST
Civil Twilight 7:11 AM CST 6:12 PM CST
Nautical Twilight 6:39 AM CST 6:43 PM CST
Astronomical Twilight 6:08 AM CST 7:15 PM CST
Moon 2:56 PM CST (1/23) 4:51 AM CST (1/23)
Length of Visible Light 11h 00m
Length of Day
10h 04m
Waxing Gibbous, 89% of the Moon is Illuminated
Jan 23
Waxing Gibbous
Jan 26
Full
Feb 3
Last Quarter
Feb 10
New
Feb 17
First Quarter

Hourly Weather History & Observations

Time (CST) Temp. Windchill Dew Point Humidity Pressure Visibility Wind Dir Wind Speed Gust Speed Precip Events Conditions
12:53 AM 24.1 °F - 18.0 °F 77% 30.26 in 10.0 mi Calm Calm - N/A   Partly Cloudy
1:53 AM 25.0 °F - 17.1 °F 72% 30.25 in 10.0 mi Calm Calm - N/A   Scattered Clouds
2:53 AM 24.1 °F 18.2 °F 17.1 °F 75% 30.25 in 10.0 mi NNE 4.6 mph - N/A   Scattered Clouds
3:53 AM 19.9 °F - 17.1 °F 89% 30.23 in 9.0 mi Calm Calm - N/A   Mostly Cloudy
4:53 AM 19.9 °F - 15.1 °F 81% 30.22 in 10.0 mi Calm Calm - N/A   Mostly Cloudy
5:53 AM 19.9 °F - 16.0 °F 85% 30.22 in 9.0 mi Calm Calm - N/A   Mostly Cloudy
6:53 AM 21.9 °F - 16.0 °F 78% 30.24 in 10.0 mi Calm Calm - N/A   Scattered Clouds
7:53 AM 19.9 °F - 16.0 °F 85% 30.25 in 10.0 mi Calm Calm - N/A   Mostly Cloudy
8:53 AM 27.0 °F - 21.9 °F 81% 30.25 in 10.0 mi Calm Calm - N/A   Mostly Cloudy
9:53 AM 33.1 °F - 24.1 °F 70% 30.25 in 10.0 mi Calm Calm - N/A   Mostly Cloudy
10:53 AM 41.0 °F - 26.1 °F 55% 30.24 in 10.0 mi Calm Calm - N/A   Mostly Cloudy
11:53 AM 48.0 °F - 27.0 °F 44% 30.22 in 10.0 mi Calm Calm - N/A   Mostly Cloudy
12:53 PM 51.1 °F - 27.0 °F 39% 30.19 in 10.0 mi NE 3.5 mph - N/A   Mostly Cloudy
1:53 PM 55.0 °F - 28.0 °F 35% 30.16 in 10.0 mi Calm Calm - N/A   Mostly Cloudy
2:53 PM 55.0 °F - 28.9 °F 37% 30.15 in 10.0 mi NE 3.5 mph - N/A   Mostly Cloudy
3:53 PM 55.9 °F - 30.0 °F 37% 30.16 in 10.0 mi ENE 3.5 mph - N/A   Mostly Cloudy
4:53 PM 54.0 °F - 30.9 °F 41% 30.17 in 10.0 mi NNW 4.6 mph - N/A   Mostly Cloudy
5:53 PM 48.0 °F - 30.9 °F 52% 30.19 in 10.0 mi NNW 5.8 mph - N/A   Mostly Cloudy
6:53 PM 50.0 °F - 30.0 °F 46% 30.23 in 10.0 mi NNE 9.2 mph - N/A   Mostly Cloudy
7:53 PM 43.0 °F 35.4 °F 24.1 °F 47% 30.26 in 10.0 mi NNE 16.1 mph 26.5 mph N/A   Mostly Cloudy
8:53 PM 39.9 °F 31.8 °F 23.0 °F 51% 30.29 in 10.0 mi NNE 15.0 mph 23.0 mph N/A   Mostly Cloudy
9:53 PM 37.0 °F 27.4 °F 21.0 °F 52% 30.31 in 10.0 mi NE 17.3 mph 24.2 mph N/A   Mostly Cloudy
10:53 PM 34.0 °F 23.4 °F 19.9 °F 56% 30.33 in 10.0 mi NE 17.3 mph - N/A   Overcast
11:53 PM 32.0 °F 20.1 °F 18.0 °F 56% 30.35 in 10.0 mi NE 19.6 mph 28.8 mph N/A   Mostly Cloudy